Total_Precipitation_Accumulation
0.01 0.02 0.09 0.13 0.17 0.13 0.09 0.06 0.04 0.04 0.04 0.05 0.06 0.07 0.07 0.07 0.07 0.07 0.07 0.09 0.11 0.15 0.21 0.23 0.28 0.41 0.39 0.25 0.13 0.05 0.02 0.01 0.01 0.01 0.01 0.01 0.03 0.05 0.05 0.04 0.05 0.07 0.09
0.00 0.02 0.07 0.11 0.16 0.13 0.10 0.08 0.04 0.03 0.03 0.05 0.06 0.07 0.08 0.07 0.07 0.08 0.10 0.12 0.14 0.19 0.22 0.25 0.30 0.35 0.30 0.20 0.12 0.04 0.01 0.00 0.00 0.00 0.00 0.00 0.02 0.03 0.03 0.03 0.05 0.09 0.11
0.00 0.02 0.05 0.09 0.14 0.13 0.10 0.07 0.03 0.02 0.03 0.04 0.06 0.08 0.09 0.08 0.07 0.08 0.09 0.13 0.15 0.18 0.21 0.26 0.26 0.24 0.20 0.17 0.11 0.03 0.01 0.01 0.00 0.00 0.01 0.02 0.03 0.06 0.05 0.06 0.08 0.10 0.12
0.00 0.02 0.04 0.07 0.11 0.12 0.09 0.06 0.03 0.03 0.03 0.04 0.05 0.08 0.11 0.09 0.08 0.09 0.10 0.10 0.11 0.13 0.16 0.17 0.14 0.10 0.07 0.06 0.06 0.03 0.01 0.01 0.00 0.01 0.02 0.03 0.05 0.10 0.10 0.09 0.11 0.12 0.13
0.00 0.01 0.04 0.06 0.10 0.11 0.08 0.06 0.04 0.04 0.03 0.03 0.04 0.07 0.11 0.12 0.11 0.09 0.08 0.07 0.07 0.07 0.08 0.07 0.05 0.02 0.01 0.01 0.02 0.02 0.01 0.01 0.00 0.01 0.02 0.04 0.06 0.13 0.13 0.12 0.13 0.14 0.15
0.00 0.01 0.05 0.07 0.09 0.09 0.07 0.06 0.05 0.04 0.03 0.02 0.03 0.05 0.10 0.14 0.13 0.08 0.04 0.03 0.03 0.03 0.04 0.03 0.01 0.01 0.00 0.00 0.00 0.01 0.01 0.01 0.00 0.01 0.02 0.04 0.05 0.13 0.13 0.11 0.12 0.13 0.14
0.01 0.02 0.06 0.08 0.09 0.08 0.07 0.07 0.05 0.04 0.03 0.02 0.02 0.03 0.07 0.12 0.12 0.08 0.03 0.02 0.02 0.02 0.02 0.02 0.01 0.01 0.00 0.00 0.00 0.01 0.01 0.01 0.01 0.01 0.03 0.03 0.06 0.13 0.12 0.11 0.12 0.12 0.13
0.01 0.03 0.07 0.11 0.10 0.08 0.08 0.07 0.05 0.03 0.02 0.02 0.02 0.04 0.05 0.07 0.09 0.07 0.03 0.02 0.02 0.02 0.02 0.01 0.01 0.01 0.01 0.01 0.01 0.01 0.01 0.00 0.01 0.01 0.02 0.02 0.05 0.09 0.09 0.09 0.10 0.11 0.11
0.02 0.03 0.07 0.11 0.11 0.10 0.08 0.07 0.05 0.03 0.02 0.02 0.03 0.03 0.03 0.03 0.05 0.05 0.03 0.02 0.02 0.02 0.02 0.02 0.02 0.02 0.02 0.01 0.01 0.01 0.00 0.00 0.00 0.01 0.01 0.02 0.04 0.07 0.08 0.08 0.11 0.13 0.13
0.06 0.05 0.06 0.09 0.10 0.10 0.09 0.07 0.05 0.03 0.02 0.02 0.02 0.02 0.01 0.01 0.02 0.02 0.02 0.02 0.02 0.02 0.02 0.02 0.02 0.02 0.02 0.02 0.01 0.00 0.00 0.00 0.00 0.00 0.01 0.01 0.03 0.06 0.06 0.09 0.11 0.13 0.15
0.10 0.08 0.07 0.07 0.08 0.09 0.07 0.05 0.04 0.03 0.02 0.02 0.01 0.01 0.00 0.01 0.01 0.01 0.01 0.01 0.01 0.01 0.01 0.01 0.02 0.02 0.01 0.01 0.00 0.00 0.00 0.00 0.00 0.00 0.00 0.01 0.03 0.05 0.05 0.07 0.09 0.09 0.10
0.11 0.10 0.08 0.06 0.07 0.07 0.06 0.05 0.04 0.03 0.02 0.01 0.01 0.01 0.01 0.01 0.01 0.01 0.00 0.00 0.01 0.01 0.01 0.01 0.01 0.01 0.00 0.00 0.00 0.00 0.00 0.00 0.00 0.00 0.00 0.01 0.03 0.04 0.04 0.05 0.05 0.06 0.06
0.11 0.10 0.08 0.07 0.07 0.06 0.05 0.04 0.03 0.03 0.02 0.01 0.01 0.01 0.01 0.01 0.00 0.00 0.00 0.00 0.00 0.00 0.01 0.00 0.00 0.00 0.00 0.00 0.00 0.00 0.00 0.00 0.00 0.00 0.00 0.01 0.02 0.03 0.04 0.04 0.04 0.05 0.05
0.18 0.13 0.11 0.09 0.07 0.06 0.04 0.03 0.02 0.02 0.02 0.01 0.00 0.00 0.00 0.00 0.00 0.00 0.00 0.00 0.00 0.00 0.01 0.00 0.00 0.00 0.00 0.00 0.00 0.00 0.00 0.00 0.00 0.00 0.00 0.00 0.01 0.02 0.03 0.03 0.04 0.04 0.05
0.27 0.22 0.18 0.15 0.11 0.07 0.05 0.03 0.02 0.02 0.01 0.01 0.01 0.00 0.00 0.00 0.00 0.00 0.00 0.00 0.00 0.00 0.00 0.00 0.00 0.00 0.00 0.00 0.00 0.00 0.00 0.00 0.00 0.00 0.00 0.00 0.00 0.01 0.02 0.03 0.03 0.04 0.07
0.32 0.30 0.24 0.21 0.18 0.13 0.08 0.04 0.02 0.02 0.02 0.01 0.01 0.01 0.01 0.00 0.00 0.00 0.00 0.00 0.00 0.00 0.00 0.00 0.00 0.00 0.00 0.00 0.00 0.00 0.00 0.00 0.00 0.00 0.00 0.00 0.00 0.00 0.01 0.02 0.03 0.05 0.08
0.30 0.35 0.31 0.29 0.27 0.18 0.13 0.09 0.05 0.04 0.03 0.03 0.03 0.02 0.01 0.01 0.00 0.00 0.00 0.00 0.00 0.00 0.00 0.00 0.00 0.00 0.00 0.00 0.00 0.00 0.00 0.00 0.00 0.00 0.00 0.00 0.00 0.00 0.00 0.02 0.04 0.06 0.08
0.28 0.31 0.36 0.34 0.30 0.26 0.20 0.15 0.11 0.10 0.09 0.08 0.08 0.05 0.04 0.02 0.02 0.02 0.01 0.00 0.00 0.00 0.00 0.00 0.00 0.00 0.00 0.00 0.00 0.00 0.00 0.00 0.00 0.00 0.00 0.00 0.00 0.00 0.00 0.01 0.03 0.05 0.07
0.27 0.28 0.33 0.32 0.29 0.31 0.34 0.33 0.28 0.23 0.17 0.16 0.13 0.09 0.09 0.07 0.06 0.04 0.02 0.02 0.01 0.01 0.01 0.01 0.00 0.01 0.00 0.00 0.00 0.00 0.00 0.00 0.00 0.00 0.00 0.00 0.00 0.00 0.01 0.01 0.01 0.02 0.04
0.27 0.33 0.34 0.38 0.39 0.44 0.51 0.51 0.45 0.38 0.29 0.25 0.20 0.18 0.16 0.13 0.11 0.09 0.06 0.04 0.02 0.02 0.02 0.02 0.01 0.01 0.01 0.01 0.01 0.01 0.00 0.00 0.00 0.00 0.01 0.01 0.01 0.01 0.01 0.01 0.01 0.01 0.02
0.20 0.26 0.31 0.34 0.40 0.43 0.41 0.39 0.36 0.34 0.36 0.36 0.33 0.32 0.28 0.22 0.18 0.14 0.10 0.08 0.06 0.04 0.03 0.04 0.04 0.03 0.03 0.02 0.02 0.02 0.00 0.00 0.01 0.01 0.01 0.01 0.01 0.02 0.02 0.01 0.02 0.02 0.02
0.13 0.17 0.24 0.28 0.35 0.38 0.35 0.40 0.43 0.50 0.54 0.54 0.50 0.42 0.37 0.34 0.30 0.23 0.16 0.14 0.13 0.10 0.07 0.07 0.08 0.07 0.06 0.06 0.07 0.09 0.05 0.02 0.01 0.01 0.02 0.02 0.02 0.02 0.02 0.02 0.02 0.03 0.03
0.09 0.11 0.15 0.21 0.27 0.32 0.39 0.49 0.56 0.60 0.52 0.47 0.42 0.40 0.40 0.41 0.41 0.37 0.31 0.26 0.23 0.20 0.15 0.16 0.17 0.16 0.16 0.17 0.16 0.20 0.17 0.09 0.06 0.03 0.03 0.03 0.03 0.02 0.02 0.02 0.03 0.04 0.05
0.07 0.10 0.13 0.17 0.22 0.27 0.35 0.36 0.39 0.39 0.35 0.34 0.40 0.46 0.48 0.47 0.46 0.44 0.41 0.37 0.34 0.30 0.27 0.29 0.32 0.33 0.33 0.29 0.23 0.21 0.22 0.21 0.22 0.15 0.05 0.04 0.04 0.04 0.05 0.05 0.05 0.06 0.06
0.06 0.09 0.11 0.14 0.19 0.25 0.29 0.32 0.35 0.33 0.34 0.37 0.40 0.41 0.42 0.42 0.42 0.43 0.43 0.44 0.43 0.41 0.42 0.45 0.45 0.45 0.43 0.40 0.36 0.34 0.33 0.30 0.28 0.31 0.19 0.09 0.09 0.10 0.10 0.09 0.09 0.09 0.11
0.04 0.06 0.08 0.11 0.13 0.17 0.23 0.28 0.29 0.32 0.35 0.36 0.36 0.36 0.37 0.40 0.40 0.39 0.41 0.44 0.47 0.47 0.48 0.50 0.53 0.56 0.57 0.55 0.52 0.47 0.47 0.43 0.37 0.42 0.39 0.26 0.22 0.19 0.18 0.18 0.18 0.19 0.20